owner,sensor,date,latitude,longitude,vertical_datum,wind_speed,wind_to_direction,wind_speed_of_gust,qcFlag 
TABS,ioos:station:wmo:42045:1,2008-01-01T00:00:00Z,26.2168,-96.4998,4.0,3.486904071,99.408694,4.52,'11111222,11111222,11111222' 
TABS,ioos:station:wmo:42045:1,2008-01-01T00:30:00Z,26.2168,-96.4998,4.0,3.620842443,108.6855244,4.79,'11111222,11111222,11111222' 
TABS,ioos:station:wmo:42045:1,2008-01-01T01:00:00Z,26.2168,-96.4998,4.0,3.936000508,120.5397006,4.74,'11111222,11111222,11111222' 
TABS,ioos:station:wmo:42045:1,2008-01-01T01:30:00Z,26.2168,-96.4998,4.0,3.799539446,114.4068786,4.68,'11111222,11111222,11111222' 
TABS,ioos:station:wmo:42045:1,2008-01-01T02:00:00Z,26.2168,-96.4998,4.0,3.620497203,98.57811738,4.24,'11111222,11111222,11111222' 
TABS,ioos:station:wmo:42045:1,2008-01-01T02:30:00Z,26.2168,-96.4998,4.0,3.797169999,98.02380858,4.55,'11111222,11111222,11111222' 
TABS,ioos:station:wmo:42045:1,2008-01-01T03:00:00Z,26.2168,-96.4998,4.0,3.793098997,97.57508289,4.57,'11111222,11111222,11111222' 
TABS,ioos:station:wmo:42045:1,2008-01-01T03:30:00Z,26.2168,-96.4998,4.0,3.981318877,85.67814644,5.05,'11111222,11111222,11111222' 
TABS,ioos:station:wmo:42045:1,2008-01-01T04:00:00Z,26.2168,-96.4998,4.0,4.665415308,67.17193543,5.7,'11111222,11111222,11111222' 
TABS,ioos:station:wmo:42045:1,2008-01-01T04:30:00Z,26.2168,-96.4998,4.0,4.163712286,63.92691428,5.25,'11111222,11111222,11111222' 
TABS,ioos:station:wmo:42045:1,2008-01-01T05:00:00Z,26.2168,-96.4998,4.0,3.536453025,60.89783422,4.26,'11111222,11111222,11111222' 
TABS,ioos:station:wmo:42045:1,2008-01-01T05:30:00Z,26.2168,-96.4998,4.0,3.791635531,34.36036239,4.67,'11111222,11111222,11111222' 
TABS,ioos:station:wmo:42045:1,2008-01-01T06:00:00Z,26.2168,-96.4998,4.0,3.913182848,26.23737847,5.12,'11111222,11111222,11111222' 
TABS,ioos:station:wmo:42045:1,2008-01-01T06:30:00Z,26.2168,-96.4998,4.0,5.766151229,23.94204441,7.31,'11111222,11111222,11111222' 
TABS,ioos:station:wmo:42045:1,2008-01-01T07:00:00Z,26.2168,-96.4998,4.0,5.364363895,32.97880367,7.11,'11111222,11111222,11111222' 
TABS,ioos:station:wmo:42045:1,2008-01-01T07:30:00Z,26.2168,-96.4998,4.0,6.492218419,18.68586793,8.37,'11111222,11111222,11111222' 
TABS,ioos:station:wmo:42045:1,2008-01-01T08:00:00Z,26.2168,-96.4998,4.0,10.55297588,18.96694396,14.07,'11111222,11111222,11111222' 
TABS,ioos:station:wmo:42045:1,2008-01-01T08:30:00Z,26.2168,-96.4998,4.0,10.54101039,19.2769648,13.54,'11111222,11111222,11111222' 
TABS,ioos:station:wmo:42045:1,2008-01-01T09:00:00Z,26.2168,-96.4998,4.0,10.52684663,23.27694021,13.93,'11111222,11111222,11111222' 
TABS,ioos:station:wmo:42045:1,2008-01-01T09:30:00Z,26.2168,-96.4998,4.0,11.14131949,27.41575531,14.44,'11111222,11111222,11111222' 
TABS,ioos:station:wmo:42045:1,2008-01-01T10:00:00Z,26.2168,-96.4998,4.0,12.23660084,27.23487255,16.62,'11111222,11111222,11111222' 
TABS,ioos:station:wmo:42045:1,2008-01-01T10:30:00Z,26.2168,-96.4998,4.0,12.50518293,24.26926019,15.73,'11111222,11111222,11111222' 
TABS,ioos:station:wmo:42045:1,2008-01-01T11:00:00Z,26.2168,-96.4998,4.0,12.29416528,26.9399357,15.93,'11111222,11111222,11111222' 
TABS,ioos:station:wmo:42045:1,2008-01-01T11:30:00Z,26.2168,-96.4998,4.0,12.52668352,26.91251655,16.06,'11111222,11111222,11111222' 
TABS,ioos:station:wmo:42045:1,2008-01-01T12:00:00Z,26.2168,-96.4998,4.0,12.62566038,30.0372968,15.9,'11111222,11111222,11111222' 
TABS,ioos:station:wmo:42045:1,2008-01-01T12:30:00Z,26.2168,-96.4998,4.0,12.53374645,32.4218214,16.12,'11111222,11111222,11111222' 
TABS,ioos:station:wmo:42045:1,2008-01-01T13:00:00Z,26.2168,-96.4998,4.0,13.15908811,40.80878658,18.2,'11111222,11111222,11111222' 
TABS,ioos:station:wmo:42045:1,2008-01-01T13:30:00Z,26.2168,-96.4998,4.0,13.59562062,39.23869695,18.05,'11111222,11111222,11111222' 
TABS,ioos:station:wmo:42045:1,2008-01-01T14:00:00Z,26.2168,-96.4998,4.0,14.19239233,34.89912363,18.16,'11111222,11111222,11111222' 
TABS,ioos:station:wmo:42045:1,2008-01-01T14:30:00Z,26.2168,-96.4998,4.0,13.57603771,36.73454961,18.35,'11111222,11111222,11111222' 
TABS,ioos:station:wmo:42045:1,2008-01-01T15:00:00Z,26.2168,-96.4998,4.0,13.47469109,26.29855448,17.88,'11111222,11111222,11111222' 
TABS,ioos:station:wmo:42045:1,2008-01-01T15:30:00Z,26.2168,-96.4998,4.0,13.7608212,26.73236369,18.7,'11111222,11111222,11111222' 
TABS,ioos:station:wmo:42045:1,2008-01-01T16:00:00Z,26.2168,-96.4998,4.0,13.18280698,28.5477461,17.61,'11111222,11111222,11111222' 
TABS,ioos:station:wmo:42045:1,2008-01-01T16:30:00Z,26.2168,-96.4998,4.0,12.61805453,19.82767158,17.1,'11111222,11111222,11111222' 
TABS,ioos:station:wmo:42045:1,2008-01-01T17:00:00Z,26.2168,-96.4998,4.0,12.03297553,17.90768053,15.69,'11111222,11111222,11111222' 
TABS,ioos:station:wmo:42045:1,2008-01-01T17:30:00Z,26.2168,-96.4998,4.0,11.56486489,18.92037271,15.91,'11111222,11111222,11111222' 
TABS,ioos:station:wmo:42045:1,2008-01-01T18:00:00Z,26.2168,-96.4998,4.0,12.20324957,18.53862609,16.41,'11111222,11111222,11111222' 
TABS,ioos:station:wmo:42045:1,2008-01-01T18:30:00Z,26.2168,-96.4998,4.0,12.13782518,21.15247965,15.77,'11111222,11111222,11111222' 
TABS,ioos:station:wmo:42045:1,2008-01-01T19:00:00Z,26.2168,-96.4998,4.0,11.26787025,19.06181873,15.59,'11111222,11111222,11111222' 
TABS,ioos:station:wmo:42045:1,2008-01-01T19:30:00Z,26.2168,-96.4998,4.0,11.28278334,14.15916347,14.45,'11111222,11111222,11111222' 
TABS,ioos:station:wmo:42045:1,2008-01-01T20:00:00Z,26.2168,-96.4998,4.0,11.64904288,13.85706371,14.68,'11111222,11111222,11111222' 
TABS,ioos:station:wmo:42045:1,2008-01-01T20:30:00Z,26.2168,-96.4998,4.0,10.982914,14.76987071,15.27,'11111222,11111222,11111222' 
TABS,ioos:station:wmo:42045:1,2008-01-01T21:00:00Z,26.2168,-96.4998,4.0,11.11065255,13.79836408,14.68,'11111222,11111222,11111222' 
TABS,ioos:station:wmo:42045:1,2008-01-01T21:30:00Z,26.2168,-96.4998,4.0,10.95624023,17.31009839,15.78,'11111222,11111222,11111222' 
TABS,ioos:station:wmo:42045:1,2008-01-01T22:00:00Z,26.2168,-96.4998,4.0,10.97934424,11.98517563,14.87,'11111222,11111222,11111222' 
TABS,ioos:station:wmo:42045:1,2008-01-01T22:30:00Z,26.2168,-96.4998,4.0,10.90775871,16.83986888,15.35,'11111222,11111222,11111222' 
TABS,ioos:station:wmo:42045:1,2008-01-01T23:00:00Z,26.2168,-96.4998,4.0,10.96578771,17.2945517,16.14,'11111222,11111222,11111222' 
TABS,ioos:station:wmo:42045:1,2008-01-01T23:30:00Z,26.2168,-96.4998,4.0,10.38029383,12.85784965,15.19,'11111222,11111222,11111222' 
TABS,ioos:station:wmo:42045:1,2008-01-02T00:00:00Z,26.2168,-96.4998,4.0,10.39317083,15.39992453,14.47,'11111222,11111222,11111222' 
TABS,ioos:station:wmo:42045:1,2008-01-02T00:30:00Z,26.2168,-96.4998,4.0,9.694173508,16.6027567,13.81,'11111222,11111222,11111222' 
TABS,ioos:station:wmo:42045:1,2008-01-02T01:00:00Z,26.2168,-96.4998,4.0,10.08278731,19.40510586,13.31,'11111222,11111222,11111222' 
TABS,ioos:station:wmo:42045:1,2008-01-02T01:30:00Z,26.2168,-96.4998,4.0,10.30908337,13.11934807,14.67,'11111222,11111222,11111222' 
TABS,ioos:station:wmo:42045:1,2008-01-02T02:00:00Z,26.2168,-96.4998,4.0,10.4559122,15.8171891,15.4,'11111222,11111222,11111222' 
TABS,ioos:station:wmo:42045:1,2008-01-02T02:30:00Z,26.2168,-96.4998,4.0,10.0254576,11.3321117,13.34,'11111222,11111222,11111222' 
TABS,ioos:station:wmo:42045:1,2008-01-02T03:00:00Z,26.2168,-96.4998,4.0,10.17035398,25.88451926,14.84,'11111222,11111222,11111222' 
TABS,ioos:station:wmo:42045:1,2008-01-02T03:30:00Z,26.2168,-96.4998,4.0,9.971238639,10.63353917,14.28,'11111222,11111222,11111222' 
TABS,ioos:station:wmo:42045:1,2008-01-02T04:00:00Z,26.2168,-96.4998,4.0,9.918840658,17.30208451,14.2,'11111222,11111222,11111222' 
TABS,ioos:station:wmo:42045:1,2008-01-02T04:30:00Z,26.2168,-96.4998,4.0,10.04056771,15.18480456,13.62,'11111222,11111222,11111222' 
TABS,ioos:station:wmo:42045:1,2008-01-02T05:00:00Z,26.2168,-96.4998,4.0,9.92767848,20.15049532,13.39,'11111222,11111222,11111222' 
TABS,ioos:station:wmo:42045:1,2008-01-02T05:30:00Z,26.2168,-96.4998,4.0,10.22261219,19.60455512,14.61,'11111222,11111222,11111222' 
TABS,ioos:station:wmo:42045:1,2008-01-02T06:00:00Z,26.2168,-96.4998,4.0,10.0245748,12.15040483,13.72,'11111222,11111222,11111222' 
TABS,ioos:station:wmo:42045:1,2008-01-02T06:30:00Z,26.2168,-96.4998,4.0,9.94537581,18.52578524,13.48,'11111222,11111222,11111222' 
TABS,ioos:station:wmo:42045:1,2008-01-02T07:00:00Z,26.2168,-96.4998,4.0,9.580318366,25.73562779,13.25,'11111222,11111222,11111222' 
TABS,ioos:station:wmo:42045:1,2008-01-02T07:30:00Z,26.2168,-96.4998,4.0,10.07036246,17.39110859,14.09,'11111222,11111222,11111222' 
TABS,ioos:station:wmo:42045:1,2008-01-02T08:00:00Z,26.2168,-96.4998,4.0,11.6168197,15.57930651,15.77,'11111222,11111222,11111222' 
TABS,ioos:station:wmo:42045:1,2008-01-02T08:30:00Z,26.2168,-96.4998,4.0,11.50847514,14.33787118,16.19,'11111222,11111222,11111222' 
TABS,ioos:station:wmo:42045:1,2008-01-02T09:00:00Z,26.2168,-96.4998,4.0,11.63361509,11.25174315,15.21,'11111222,11111222,11111222' 
TABS,ioos:station:wmo:42045:1,2008-01-02T09:30:00Z,26.2168,-96.4998,4.0,11.82479598,14.84689979,16.45,'11111222,11111222,11111222' 
TABS,ioos:station:wmo:42045:1,2008-01-02T10:00:00Z,26.2168,-96.4998,4.0,11.55169252,17.11706498,16.1,'11111222,11111222,11111222' 
TABS,ioos:station:wmo:42045:1,2008-01-02T10:30:00Z,26.2168,-96.4998,4.0,10.99113279,12.98656148,14.55,'11111222,11111222,11111222' 
TABS,ioos:station:wmo:42045:1,2008-01-02T11:00:00Z,26.2168,-96.4998,4.0,11.34621082,13.55834341,16.63,'11111222,11111222,11111222' 
TABS,ioos:station:wmo:42045:1,2008-01-02T11:30:00Z,26.2168,-96.4998,4.0,11.21281856,16.15571555,17.2,'11111222,11111222,11111222' 
TABS,ioos:station:wmo:42045:1,2008-01-02T12:00:00Z,26.2168,-96.4998,4.0,11.03450044,12.08363873,15.19,'11111222,11111222,11111222' 
TABS,ioos:station:wmo:42045:1,2008-01-02T12:30:00Z,26.2168,-96.4998,4.0,11.53286174,15.74724831,16.61,'11111222,11111222,11111222' 
TABS,ioos:station:wmo:42045:1,2008-01-02T13:00:00Z,26.2168,-96.4998,4.0,10.90548944,7.587471486,15.0,'11111222,11111222,11111222' 
TABS,ioos:station:wmo:42045:1,2008-01-02T13:30:00Z,26.2168,-96.4998,4.0,10.63545486,19.09911096,14.12,'11111222,11111222,11111222' 
TABS,ioos:station:wmo:42045:1,2008-01-02T14:00:00Z,26.2168,-96.4998,4.0,10.56186537,6.687426384,14.73,'11111222,11111222,11111222' 
TABS,ioos:station:wmo:42045:1,2008-01-02T14:30:00Z,26.2168,-96.4998,4.0,10.84867273,22.26209246,14.66,'11111222,11111222,11111222' 
TABS,ioos:station:wmo:42045:1,2008-01-02T15:00:00Z,26.2168,-96.4998,4.0,11.14853354,28.79475494,14.7,'11111222,11111222,11111222' 
TABS,ioos:station:wmo:42045:1,2008-01-02T15:30:00Z,26.2168,-96.4998,4.0,10.93029277,22.2002448,15.33,'11111222,11111222,11111222' 
TABS,ioos:station:wmo:42045:1,2008-01-02T16:00:00Z,26.2168,-96.4998,4.0,10.50609347,19.22802194,14.31,'11111222,11111222,11111222' 
TABS,ioos:station:wmo:42045:1,2008-01-02T16:30:00Z,26.2168,-96.4998,4.0,10.02421568,19.82658443,13.55,'11111222,11111222,11111222' 
TABS,ioos:station:wmo:42045:1,2008-01-02T17:00:00Z,26.2168,-96.4998,4.0,9.89703491,26.20231663,12.71,'11111222,11111222,11111222' 
TABS,ioos:station:wmo:42045:1,2008-01-02T17:30:00Z,26.2168,-96.4998,4.0,9.780925314,18.41617096,13.67,'11111222,11111222,11111222' 
TABS,ioos:station:wmo:42045:1,2008-01-02T18:00:00Z,26.2168,-96.4998,4.0,9.70415375,28.22849971,13.38,'11111222,11111222,11111222' 
TABS,ioos:station:wmo:42045:1,2008-01-02T18:30:00Z,26.2168,-96.4998,4.0,9.402127419,15.04108384,13.09,'11111222,11111222,11111222' 
TABS,ioos:station:wmo:42045:1,2008-01-02T19:00:00Z,26.2168,-96.4998,4.0,9.569665616,20.04423202,13.0,'11111222,11111222,11111222' 
TABS,ioos:station:wmo:42045:1,2008-01-02T19:30:00Z,26.2168,-96.4998,4.0,9.23372081,15.45079157,11.76,'11111222,11111222,11111222' 
TABS,ioos:station:wmo:42045:1,2008-01-02T20:00:00Z,26.2168,-96.4998,4.0,9.16651515,19.69981788,12.8,'11111222,11111222,11111222' 
TABS,ioos:station:wmo:42045:1,2008-01-02T20:30:00Z,26.2168,-96.4998,4.0,9.111580543,22.79373725,12.36,'11111222,11111222,11111222' 
TABS,ioos:station:wmo:42045:1,2008-01-02T21:00:00Z,26.2168,-96.4998,4.0,9.097609576,20.52630225,13.54,'11111222,11111222,11111222' 
TABS,ioos:station:wmo:42045:1,2008-01-02T21:30:00Z,26.2168,-96.4998,4.0,8.734099839,19.94922184,11.66,'11111222,11111222,11111222' 
TABS,ioos:station:wmo:42045:1,2008-01-02T22:00:00Z,26.2168,-96.4998,4.0,8.246629615,26.65799269,12.13,'11111222,11111222,11111222' 
TABS,ioos:station:wmo:42045:1,2008-01-02T22:30:00Z,26.2168,-96.4998,4.0,8.42532492,21.29601989,11.74,'11111222,11111222,11111222' 
TABS,ioos:station:wmo:42045:1,2008-01-02T23:00:00Z,26.2168,-96.4998,4.0,8.051645794,34.06477027,11.1,'11111222,11111222,11111222' 
TABS,ioos:station:wmo:42045:1,2008-01-02T23:30:00Z,26.2168,-96.4998,4.0,8.045930648,33.74902919,12.16,'11111222,11111222,11111222' 
TABS,ioos:station:wmo:42045:1,2008-01-03T00:00:00Z,26.2168,-96.4998,4.0,7.58853082,32.0771276,10.68,'11111222,11111222,11111222' 
TABS,ioos:station:wmo:42045:1,2008-01-03T00:30:00Z,26.2168,-96.4998,4.0,7.550264896,24.32436066,10.52,'11111222,11111222,11111222' 
TABS,ioos:station:wmo:42045:1,2008-01-03T01:00:00Z,26.2168,-96.4998,4.0,7.349802718,39.14649648,11.56,'11111222,11111222,11111222' 
TABS,ioos:station:wmo:42045:1,2008-01-03T01:30:00Z,26.2168,-96.4998,4.0,6.723131711,33.28795898,9.32,'11111222,11111222,11111222' 
TABS,ioos:station:wmo:42045:1,2008-01-03T02:00:00Z,26.2168,-96.4998,4.0,6.880792106,35.23730841,11.03,'11111222,11111222,11111222' 
TABS,ioos:station:wmo:42045:1,2008-01-03T02:30:00Z,26.2168,-96.4998,4.0,6.702671109,48.62879651,10.65,'11111222,11111222,11111222' 
TABS,ioos:station:wmo:42045:1,2008-01-03T03:00:00Z,26.2168,-96.4998,4.0,6.654449639,28.64454045,9.6,'11111222,11111222,11111222' 
TABS,ioos:station:wmo:42045:1,2008-01-03T03:30:00Z,26.2168,-96.4998,4.0,6.344761619,41.93320598,9.29,'11111222,11111222,11111222' 
TABS,ioos:station:wmo:42045:1,2008-01-03T04:00:00Z,26.2168,-96.4998,4.0,5.357686068,31.25691871,8.09,'11111222,11111222,11111222' 
TABS,ioos:station:wmo:42045:1,2008-01-03T04:30:00Z,26.2168,-96.4998,4.0,4.956944623,32.72799434,7.73,'11111222,11111222,11111222' 
TABS,ioos:station:wmo:42045:1,2008-01-03T05:00:00Z,26.2168,-96.4998,4.0,5.057242332,46.36170179,8.62,'11111222,11111222,11111222' 
TABS,ioos:station:wmo:42045:1,2008-01-03T05:30:00Z,26.2168,-96.4998,4.0,4.682072191,52.81159775,7.56,'11111222,11111222,11111222' 
TABS,ioos:station:wmo:42045:1,2008-01-03T06:00:00Z,26.2168,-96.4998,4.0,4.587570163,39.6933309,8.39,'11111222,11111222,11111222' 
TABS,ioos:station:wmo:42045:1,2008-01-03T06:30:00Z,26.2168,-96.4998,4.0,4.341808379,71.60640362,7.6,'11111222,11111222,11111222' 
TABS,ioos:station:wmo:42045:1,2008-01-03T07:00:00Z,26.2168,-96.4998,4.0,3.614249576,48.81375023,6.31,'11111222,11111222,11111222' 
TABS,ioos:station:wmo:42045:1,2008-01-03T07:30:00Z,26.2168,-96.4998,4.0,2.754087871,50.00764449,6.23,'11111222,11111222,11111222' 
TABS,ioos:station:wmo:42045:1,2008-01-03T08:00:00Z,26.2168,-96.4998,4.0,3.39249171,34.67349891,5.69,'11111222,11111222,11111222' 
TABS,ioos:station:wmo:42045:1,2008-01-03T08:30:00Z,26.2168,-96.4998,4.0,3.900833244,42.19433764,6.04,'11111222,11111222,11111222' 
TABS,ioos:station:wmo:42045:1,2008-01-03T09:00:00Z,26.2168,-96.4998,4.0,3.712142239,32.23414838,6.26,'11111222,11111222,11111222' 
TABS,ioos:station:wmo:42045:1,2008-01-03T09:30:00Z,26.2168,-96.4998,4.0,4.180550203,55.13114671,6.16,'11111222,11111222,11111222' 
TABS,ioos:station:wmo:42045:1,2008-01-03T10:00:00Z,26.2168,-96.4998,4.0,4.044774407,40.18614467,7.66,'11111222,11111222,11111222' 
TABS,ioos:station:wmo:42045:1,2008-01-03T10:30:00Z,26.2168,-96.4998,4.0,3.501042702,43.72665727,5.87,'11111222,11111222,11111222' 
TABS,ioos:station:wmo:42045:1,2008-01-03T11:00:00Z,26.2168,-96.4998,4.0,3.855385843,30.55568236,5.93,'11111222,11111222,11111222' 
TABS,ioos:station:wmo:42045:1,2008-01-03T11:30:00Z,26.2168,-96.4998,4.0,4.26864147,30.71026033,7.67,'11111222,11111222,11111222' 
TABS,ioos:station:wmo:42045:1,2008-01-03T12:00:00Z,26.2168,-96.4998,4.0,3.720215048,36.2535425,5.72,'11111222,11111222,11111222' 
TABS,ioos:station:wmo:42045:1,2008-01-03T12:30:00Z,26.2168,-96.4998,4.0,3.250876805,40.00836273,5.21,'11111222,11111222,11111222' 
TABS,ioos:station:wmo:42045:1,2008-01-03T13:00:00Z,26.2168,-96.4998,4.0,3.314000604,53.09518972,5.95,'11111222,11111222,11111222' 
TABS,ioos:station:wmo:42045:1,2008-01-03T13:30:00Z,26.2168,-96.4998,4.0,4.005246559,69.84541506,5.8,'11111222,11111222,11111222' 
TABS,ioos:station:wmo:42045:1,2008-01-03T14:00:00Z,26.2168,-96.4998,4.0,3.235954264,65.73152432,5.82,'11111222,11111222,11111222' 
TABS,ioos:station:wmo:42045:1,2008-01-03T14:30:00Z,26.2168,-96.4998,4.0,3.666128748,40.68574605,6.16,'11111222,11111222,11111222' 
TABS,ioos:station:wmo:42045:1,2008-01-03T15:00:00Z,26.2168,-96.4998,4.0,2.548097329,42.45488588,4.56,'11111222,11111222,11111222' 
TABS,ioos:station:wmo:42045:1,2008-01-03T15:30:00Z,26.2168,-96.4998,4.0,3.421257079,80.06923272,6.53,'11111222,11111222,11111222' 
TABS,ioos:station:wmo:42045:1,2008-01-03T16:00:00Z,26.2168,-96.4998,4.0,3.268057527,77.45178453,5.8,'11111222,11111222,11111222' 
TABS,ioos:station:wmo:42045:1,2008-01-03T16:30:00Z,26.2168,-96.4998,4.0,4.225730706,87.01530392,6.81,'11111222,11111222,11111222' 
TABS,ioos:station:wmo:42045:1,2008-01-03T17:00:00Z,26.2168,-96.4998,4.0,4.046949468,84.75389106,6.21,'11111222,11111222,11111222' 
TABS,ioos:station:wmo:42045:1,2008-01-03T17:30:00Z,26.2168,-96.4998,4.0,3.628291609,80.64112238,6.39,'11111222,11111222,11111222' 
TABS,ioos:station:wmo:42045:1,2008-01-03T18:00:00Z,26.2168,-96.4998,4.0,4.160048077,89.72412137,6.0,'11111222,11111222,11111222' 
TABS,ioos:station:wmo:42045:1,2008-01-03T18:30:00Z,26.2168,-96.4998,4.0,3.909590771,79.98313318,6.57,'11111222,11111222,11111222' 
TABS,ioos:station:wmo:42045:1,2008-01-03T19:00:00Z,26.2168,-96.4998,4.0,4.102596739,65.05867703,6.83,'11111222,11111222,11111222' 
TABS,ioos:station:wmo:42045:1,2008-01-03T19:30:00Z,26.2168,-96.4998,4.0,4.037078151,67.88196448,6.37,'11111222,11111222,11111222' 
TABS,ioos:station:wmo:42045:1,2008-01-03T20:00:00Z,26.2168,-96.4998,4.0,4.021206287,82.85690646,6.31,'11111222,11111222,11111222' 
TABS,ioos:station:wmo:42045:1,2008-01-03T20:30:00Z,26.2168,-96.4998,4.0,3.718400194,69.37144392,6.18,'11111222,11111222,11111222' 
TABS,ioos:station:wmo:42045:1,2008-01-03T21:00:00Z,26.2168,-96.4998,4.0,3.54189215,71.0531187,5.73,'11111222,11111222,11111222' 
TABS,ioos:station:wmo:42045:1,2008-01-03T21:30:00Z,26.2168,-96.4998,4.0,4.125724179,83.59805781,5.76,'11111222,11111222,11111222' 
TABS,ioos:station:wmo:42045:1,2008-01-03T22:00:00Z,26.2168,-96.4998,4.0,4.035665992,107.4475685,6.47,'11111222,11111222,11111222' 
TABS,ioos:station:wmo:42045:1,2008-01-03T22:30:00Z,26.2168,-96.4998,4.0,4.274494122,128.8276082,5.87,'11111222,11111222,11111222' 
TABS,ioos:station:wmo:42045:1,2008-01-03T23:00:00Z,26.2168,-96.4998,4.0,6.006080253,116.6080724,9.2,'11111222,11111222,11111222' 
TABS,ioos:station:wmo:42045:1,2008-01-03T23:30:00Z,26.2168,-96.4998,4.0,5.607575234,104.4579155,8.75,'11111222,11111222,11111222' 
TABS,ioos:station:wmo:42045:1,2008-01-04T00:00:00Z,26.2168,-96.4998,4.0,5.488761245,123.632506,8.54,'11111222,11111222,11111222' 
TABS,ioos:station:wmo:42045:1,2008-01-04T00:30:00Z,26.2168,-96.4998,4.0,5.872307894,112.6352436,8.41,'11111222,11111222,11111222' 
TABS,ioos:station:wmo:42045:1,2008-01-04T01:00:00Z,26.2168,-96.4998,4.0,7.419029586,107.8980431,9.87,'11111222,11111222,11111222' 
TABS,ioos:station:wmo:42045:1,2008-01-04T01:30:00Z,26.2168,-96.4998,4.0,7.016159918,112.5448523,9.67,'11111222,11111222,11111222' 
TABS,ioos:station:wmo:42045:1,2008-01-04T02:00:00Z,26.2168,-96.4998,4.0,7.544600718,116.8710744,10.24,'11111222,11111222,11111222' 
TABS,ioos:station:wmo:42045:1,2008-01-04T02:30:00Z,26.2168,-96.4998,4.0,7.305299446,118.003639,10.94,'11111222,11111222,11111222' 
TABS,ioos:station:wmo:42045:1,2008-01-04T03:00:00Z,26.2168,-96.4998,4.0,7.83010217,118.3655377,10.37,'11111222,11111222,11111222' 
TABS,ioos:station:wmo:42045:1,2008-01-04T03:30:00Z,26.2168,-96.4998,4.0,7.097844743,123.0411316,10.02,'11111222,11111222,11111222' 
TABS,ioos:station:wmo:42045:1,2008-01-04T04:00:00Z,26.2168,-96.4998,4.0,7.379058205,130.989032,10.76,'11111222,11111222,11111222' 
TABS,ioos:station:wmo:42045:1,2008-01-04T04:30:00Z,26.2168,-96.4998,4.0,8.165323019,130.3809026,11.08,'11111222,11111222,11111222' 
TABS,ioos:station:wmo:42045:1,2008-01-04T05:00:00Z,26.2168,-96.4998,4.0,7.851840549,123.4677855,10.48,'11111222,11111222,11111222' 
TABS,ioos:station:wmo:42045:1,2008-01-04T05:30:00Z,26.2168,-96.4998,4.0,7.948616232,115.4048241,10.47,'11111222,11111222,11111222' 
TABS,ioos:station:wmo:42045:1,2008-01-04T06:00:00Z,26.2168,-96.4998,4.0,8.623114287,122.1606772,11.88,'11111222,11111222,11111222' 
TABS,ioos:station:wmo:42045:1,2008-01-04T06:30:00Z,26.2168,-96.4998,4.0,8.464000236,125.6245767,11.84,'11111222,11111222,11111222' 
TABS,ioos:station:wmo:42045:1,2008-01-04T07:00:00Z,26.2168,-96.4998,4.0,8.512015038,126.9779308,11.05,'11111222,11111222,11111222' 
TABS,ioos:station:wmo:42045:1,2008-01-04T07:30:00Z,26.2168,-96.4998,4.0,7.970100376,126.5826782,10.55,'11111222,11111222,11111222' 
TABS,ioos:station:wmo:42045:1,2008-01-04T08:00:00Z,26.2168,-96.4998,4.0,7.827828562,134.6380174,10.74,'11111222,11111222,11111222' 
TABS,ioos:station:wmo:42045:1,2008-01-04T08:30:00Z,26.2168,-96.4998,4.0,7.350843489,130.9736101,9.42,'11111222,11111222,11111222' 
TABS,ioos:station:wmo:42045:1,2008-01-04T09:00:00Z,26.2168,-96.4998,4.0,7.651365891,134.3649002,10.14,'11111222,11111222,11111222' 
TABS,ioos:station:wmo:42045:1,2008-01-04T09:30:00Z,26.2168,-96.4998,4.0,7.707515813,134.7900574,10.3,'11111222,11111222,11111222' 
TABS,ioos:station:wmo:42045:1,2008-01-04T10:00:00Z,26.2168,-96.4998,4.0,7.403681517,135.4928163,10.11,'11111222,11111222,11111222' 
TABS,ioos:station:wmo:42045:1,2008-01-04T10:30:00Z,26.2168,-96.4998,4.0,7.122990945,139.669477,9.9,'11111222,11111222,11111222' 
TABS,ioos:station:wmo:42045:1,2008-01-04T11:00:00Z,26.2168,-96.4998,4.0,6.848561893,130.8557016,9.21,'11111222,11111222,11111222' 
TABS,ioos:station:wmo:42045:1,2008-01-04T11:30:00Z,26.2168,-96.4998,4.0,6.668860472,135.9116224,9.02,'11111222,11111222,11111222' 
TABS,ioos:station:wmo:42045:1,2008-01-04T12:00:00Z,26.2168,-96.4998,4.0,7.338726047,123.4955273,9.44,'11111222,11111222,11111222' 
TABS,ioos:station:wmo:42045:1,2008-01-04T12:30:00Z,26.2168,-96.4998,4.0,6.390782425,130.4946533,9.31,'11111222,11111222,11111222' 
TABS,ioos:station:wmo:42045:1,2008-01-04T13:00:00Z,26.2168,-96.4998,4.0,6.984103378,130.7617882,9.49,'11111222,11111222,11111222' 
TABS,ioos:station:wmo:42045:1,2008-01-04T13:30:00Z,26.2168,-96.4998,4.0,8.689677785,123.214938,11.56,'11111222,11111222,11111222' 
TABS,ioos:station:wmo:42045:1,2008-01-04T14:00:00Z,26.2168,-96.4998,4.0,7.819366982,130.903634,9.49,'11111222,11111222,11111222' 
TABS,ioos:station:wmo:42045:1,2008-01-04T14:30:00Z,26.2168,-96.4998,4.0,7.941190087,134.4391118,10.33,'11111222,11111222,11111222' 
TABS,ioos:station:wmo:42045:1,2008-01-04T15:00:00Z,26.2168,-96.4998,4.0,8.079319278,125.8347962,10.93,'11111222,11111222,11111222' 
TABS,ioos:station:wmo:42045:1,2008-01-04T15:30:00Z,26.2168,-96.4998,4.0,7.470274426,138.9081787,9.25,'11111222,11111222,11111222' 
TABS,ioos:station:wmo:42045:1,2008-01-04T16:00:00Z,26.2168,-96.4998,4.0,8.340983155,139.4735174,10.67,'11111222,11111222,11111222' 
TABS,ioos:station:wmo:42045:1,2008-01-04T16:30:00Z,26.2168,-96.4998,4.0,8.019688273,129.0283433,10.73,'11111222,11111222,11111222' 
TABS,ioos:station:wmo:42045:1,2008-01-04T17:00:00Z,26.2168,-96.4998,4.0,7.859185708,129.3205124,10.16,'11111222,11111222,11111222' 
TABS,ioos:station:wmo:42045:1,2008-01-04T17:30:00Z,26.2168,-96.4998,4.0,6.78242582,127.5122681,8.68,'11111222,11111222,11111222' 
TABS,ioos:station:wmo:42045:1,2008-01-04T18:00:00Z,26.2168,-96.4998,4.0,7.000414273,135.231812,9.17,'11111222,11111222,11111222' 
TABS,ioos:station:wmo:42045:1,2008-01-04T18:30:00Z,26.2168,-96.4998,4.0,6.41290106,131.2702979,8.26,'11111222,11111222,11111222' 